Location: *
(48.8489°N, 2.3218°E)
Time: 20:28:55
(UTC+00:00)

Resurs 01 Rocket - Pass Details

Date: 23 August 2019
Orbit: 635 x 644 km, 98.0° (Epoch: 19 October)

Event Time Altitude Azimuth Distance (km) Brightness Sun altitude
Exits shadow 20:13:43 - 171° (S) 2,116 3.9 -12.9°
Reaches altitude 10° 20:13:58 10° 171° (S) 2,017 3.8 -12.9°
Maximum altitude 20:18:21 74° 257° (WSW) 666 1.8 -13.5°
Drops below altitude 10° 20:22:47 10° 343° (NNW) 2,036 5.0 -14.1°
Sets 20:25:01 0° 345° (NNW) 2,951 5.9 -14.4°
